Time,TemperatureF,DewpointF,PressureIn,WindDirection,WindDirectionDegrees,WindSpeedMPH,WindSpeedGustMPH,Humidity,HourlyPrecipIn,Conditions,Clouds,dailyrainin,SoftwareType,DateUTC
2013-10-23 00:04:00,49.0,48.0,29.93,WNW,283,0.0,-999.0,96,-99.99,,,0.00,,2013-10-23 05:04:00,
2013-10-23 00:13:00,49.0,48.0,29.93,WNW,283,0.0,-999.0,96,-99.99,,,0.00,,2013-10-23 05:13:00,
2013-10-23 00:23:00,49.0,48.0,29.93,WNW,283,0.0,-999.0,97,-99.99,,,0.00,,2013-10-23 05:23:00,
2013-10-23 00:52:00,48.0,47.0,29.93,WNW,283,0.0,-999.0,97,-99.99,,,0.00,,2013-10-23 05:52:00,
2013-10-23 01:22:00,48.0,47.0,29.93,WNW,283,0.0,-999.0,97,-99.99,,,0.00,,2013-10-23 06:22:00,
2013-10-23 01:42:00,47.0,46.0,29.93,WNW,283,0.0,-999.0,97,-99.99,,,0.00,,2013-10-23 06:42:00,
2013-10-23 01:52:00,46.0,45.0,29.93,WNW,283,0.0,-999.0,97,-99.99,,,0.00,,2013-10-23 06:52:00,
2013-10-23 02:01:00,46.0,45.0,29.93,WNW,283,0.0,-999.0,97,-99.99,,,0.00,,2013-10-23 07:01:00,
2013-10-23 02:12:00,46.0,45.0,29.93,WNW,283,0.0,-999.0,97,-99.99,,,0.00,,2013-10-23 07:12:00,
2013-10-23 02:22:00,46.0,45.0,29.93,WNW,283,0.0,-999.0,97,-99.99,,,0.00,,2013-10-23 07:22:00,
2013-10-23 02:42:00,46.0,45.0,29.91,WNW,283,0.0,-999.0,97,-99.99,,,0.00,,2013-10-23 07:42:00,
2013-10-23 02:52:00,46.0,45.0,29.92,WNW,283,0.0,-999.0,97,-99.99,,,0.00,,2013-10-23 07:52:00,
2013-10-23 03:12:00,46.0,45.0,29.91,WNW,283,0.0,-999.0,98,-99.99,,,0.00,,2013-10-23 08:12:00,
2013-10-23 03:22:00,46.0,45.0,29.92,WNW,283,0.0,-999.0,97,-99.99,,,0.00,,2013-10-23 08:22:00,
2013-10-23 03:52:00,45.0,44.0,29.92,WNW,286,0.0,-999.0,98,-99.99,,,0.00,,2013-10-23 08:52:00,
2013-10-23 04:12:00,45.0,44.0,29.93,WNW,286,0.0,-999.0,98,-99.99,,,0.00,,2013-10-23 09:12:00,
2013-10-23 04:22:00,45.0,44.0,29.92,WNW,286,0.0,-999.0,98,-99.99,,,0.00,,2013-10-23 09:22:00,
2013-10-23 04:43:00,45.0,44.0,29.93,WNW,286,0.0,-999.0,98,-99.99,,,0.00,,2013-10-23 09:43:00,
2013-10-23 04:53:00,45.0,44.0,29.93,NW,312,0.0,-999.0,98,-99.99,,,0.00,,2013-10-23 09:53:00,
2013-10-23 05:23:00,45.0,44.0,29.94,NW,312,0.0,-999.0,98,-99.99,,,0.00,,2013-10-23 10:23:00,
2013-10-23 05:53:00,45.0,44.0,29.96,NW,312,0.0,-999.0,98,-99.99,,,0.00,,2013-10-23 10:53:00,
2013-10-23 06:12:00,44.0,43.0,29.97,NW,312,0.0,-999.0,98,-99.99,,,0.00,,2013-10-23 11:12:00,
2013-10-23 06:22:00,44.0,43.0,29.97,NW,312,0.0,-999.0,98,-99.99,,,0.00,,2013-10-23 11:22:00,
2013-10-23 06:42:00,44.0,43.0,29.98,WNW,303,1.0,-999.0,98,-99.99,,,0.00,,2013-10-23 11:42:00,
2013-10-23 06:52:00,44.0,43.0,29.98,NW,313,1.0,-999.0,98,-99.99,,,0.00,,2013-10-23 11:52:00,
2013-10-23 07:12:00,44.0,43.0,30.00,NW,305,0.0,-999.0,98,-99.99,,,0.00,,2013-10-23 12:12:00,
2013-10-23 07:22:00,44.0,43.0,30.00,WNW,303,1.0,-999.0,98,-99.99,,,0.00,,2013-10-23 12:22:00,
2013-10-23 07:42:00,44.0,43.0,30.02,WNW,288,2.0,-999.0,98,-99.99,,,0.00,,2013-10-23 12:42:00,
2013-10-23 07:52:00,45.0,44.0,30.02,NW,308,1.0,-999.0,98,-99.99,,,0.00,,2013-10-23 12:52:00,
2013-10-23 08:12:00,45.0,44.0,30.02,WNW,301,2.0,-999.0,98,-99.99,,,0.00,,2013-10-23 13:12:00,
2013-10-23 08:22:00,46.0,45.0,30.03,WNW,301,4.0,-999.0,98,-99.99,,,0.00,,2013-10-23 13:22:00,
2013-10-23 08:42:00,47.0,46.0,30.04,WNW,290,6.0,-999.0,96,-99.99,,,0.00,,2013-10-23 13:42:00,
2013-10-23 08:52:00,48.0,46.0,30.05,WNW,299,5.0,-999.0,93,-99.99,,,0.00,,2013-10-23 13:52:00,
2013-10-23 09:11:00,48.0,45.0,30.07,NNW,331,6.0,-999.0,89,-99.99,,,0.00,,2013-10-23 14:11:00,
2013-10-23 09:22:00,48.0,44.0,30.06,NW,323,5.0,-999.0,87,-99.99,,,0.00,,2013-10-23 14:22:00,
2013-10-23 09:42:00,49.0,44.0,30.08,WNW,300,6.0,-999.0,83,-99.99,,,0.00,,2013-10-23 14:42:00,
2013-10-23 09:52:00,49.0,44.0,30.07,North,354,5.0,-999.0,83,-99.99,,,0.00,,2013-10-23 14:52:00,
2013-10-23 10:11:00,49.0,43.0,30.08,NNW,334,7.0,-999.0,80,-99.99,,,0.01,,2013-10-23 15:11:00,
2013-10-23 10:22:00,49.0,43.0,30.08,NNW,334,7.0,-999.0,80,-99.99,,,0.01,,2013-10-23 15:22:00,
2013-10-23 10:43:00,51.0,41.0,30.09,WNW,283,9.0,-999.0,68,-99.99,,,0.01,,2013-10-23 15:43:00,
2013-10-23 10:53:00,52.0,42.0,30.08,WNW,285,5.0,-999.0,69,-99.99,,,0.01,,2013-10-23 15:53:00,
2013-10-23 11:23:00,53.0,40.0,30.09,North,359,7.0,-999.0,62,-99.99,,,0.01,,2013-10-23 16:23:00,
2013-10-23 11:53:00,54.0,41.0,30.09,NW,324,6.0,-999.0,61,-99.99,,,0.01,,2013-10-23 16:53:00,
2013-10-23 12:03:00,54.0,41.0,30.09,NW,324,6.0,-999.0,61,-99.99,,,0.01,,2013-10-23 17:03:00,
2013-10-23 12:12:00,54.0,41.0,30.09,NW,324,6.0,-999.0,61,-99.99,,,0.01,,2013-10-23 17:12:00,
2013-10-23 12:23:00,55.0,38.0,30.09,WNW,289,8.0,-999.0,53,-99.99,,,0.01,,2013-10-23 17:23:00,
2013-10-23 12:44:00,56.0,39.0,30.09,WNW,293,8.0,-999.0,53,-99.99,,,0.01,,2013-10-23 17:44:00,
2013-10-23 12:52:00,56.0,39.0,30.09,WNW,294,8.0,-999.0,52,-99.99,,,0.01,,2013-10-23 17:52:00,
2013-10-23 13:12:00,55.0,38.0,30.09,WNW,302,7.0,-999.0,53,-99.99,,,0.01,,2013-10-23 18:12:00,
2013-10-23 13:22:00,57.0,39.0,30.09,West,259,6.0,-999.0,51,-99.99,,,0.01,,2013-10-23 18:22:00,
2013-10-23 13:41:00,57.0,39.0,30.08,NW,310,6.0,-999.0,51,-99.99,,,0.01,,2013-10-23 18:41:00,
2013-10-23 13:52:00,57.0,39.0,30.08,West,259,7.0,-999.0,51,-99.99,,,0.01,,2013-10-23 18:52:00,
2013-10-23 14:12:00,57.0,38.0,30.07,WNW,284,6.0,-999.0,49,-99.99,,,0.01,,2013-10-23 19:12:00,
2013-10-23 14:22:00,58.0,39.0,30.06,WNW,303,6.0,-999.0,49,-99.99,,,0.01,,2013-10-23 19:22:00,
2013-10-23 14:42:00,58.0,39.0,30.06,NW,306,5.0,-999.0,49,-99.99,,,0.01,,2013-10-23 19:42:00,
2013-10-23 14:53:00,58.0,39.0,30.06,WNW,283,6.0,-999.0,49,-99.99,,,0.01,,2013-10-23 19:53:00,
2013-10-23 15:11:00,58.0,38.0,30.06,West,264,5.0,-999.0,48,-99.99,,,0.01,,2013-10-23 20:11:00,
2013-10-23 15:22:00,58.0,38.0,30.05,West,278,6.0,-999.0,48,-99.99,,,0.01,,2013-10-23 20:22:00,
2013-10-23 15:42:00,58.0,38.0,30.05,West,281,7.0,-999.0,47,-99.99,,,0.01,,2013-10-23 20:42:00,
2013-10-23 15:52:00,58.0,37.0,30.05,NW,305,5.0,-999.0,46,-99.99,,,0.01,,2013-10-23 20:52:00,
2013-10-23 16:12:00,59.0,37.0,30.05,West,278,5.0,-999.0,44,-99.99,,,0.01,,2013-10-23 21:12:00,
2013-10-23 16:22:00,59.0,38.0,30.05,WNW,283,4.0,-999.0,45,-99.99,,,0.01,,2013-10-23 21:22:00,
2013-10-23 16:43:00,58.0,37.0,30.05,WNW,287,7.0,-999.0,45,-99.99,,,0.01,,2013-10-23 21:43:00,
2013-10-23 16:54:00,58.0,37.0,30.06,WNW,290,5.0,-999.0,45,-99.99,,,0.01,,2013-10-23 21:54:00,
2013-10-23 17:13:00,57.0,36.0,30.06,WNW,287,6.0,-999.0,46,-99.99,,,0.01,,2013-10-23 22:13:00,
2013-10-23 17:24:00,57.0,37.0,30.07,NW,308,4.0,-999.0,47,-99.99,,,0.01,,2013-10-23 22:24:00,
2013-10-23 17:43:00,57.0,37.0,30.08,NNW,345,4.0,-999.0,47,-99.99,,,0.01,,2013-10-23 22:43:00,
2013-10-23 17:54:00,57.0,38.0,30.08,WNW,296,2.0,-999.0,49,-99.99,,,0.01,,2013-10-23 22:54:00,
2013-10-23 18:12:00,54.0,40.0,30.08,SE,141,1.0,-999.0,60,-99.99,,,0.01,,2013-10-23 23:12:00,
2013-10-23 18:22:00,53.0,41.0,30.08,ENE,68,0.0,-999.0,64,-99.99,,,0.01,,2013-10-23 23:22:00,
2013-10-23 18:42:00,52.0,41.0,30.09,NE,44,0.0,-999.0,67,-99.99,,,0.01,,2013-10-23 23:42:00,
2013-10-23 18:52:00,50.0,41.0,30.09,NE,44,0.0,-999.0,70,-99.99,,,0.01,,2013-10-23 23:52:00,
2013-10-23 19:12:00,49.0,41.0,30.10,NE,44,1.0,-999.0,73,-99.99,,,0.01,,2013-10-24 00:12:00,
2013-10-23 19:22:00,49.0,41.0,30.10,NE,44,1.0,-999.0,73,-99.99,,,0.01,,2013-10-24 00:22:00,
2013-10-23 19:42:00,48.0,40.0,30.11,NE,44,0.0,-999.0,73,-99.99,,,0.01,,2013-10-24 00:42:00,
2013-10-23 19:52:00,47.0,39.0,30.11,NE,44,0.0,-999.0,75,-99.99,,,0.01,,2013-10-24 00:52:00,
2013-10-23 20:11:00,47.0,39.0,30.11,NE,44,0.0,-999.0,75,-99.99,,,0.01,,2013-10-24 01:11:00,
2013-10-23 20:22:00,47.0,40.0,30.12,NE,44,0.0,-999.0,77,-99.99,,,0.01,,2013-10-24 01:22:00,
2013-10-23 20:42:00,46.0,40.0,30.13,NE,44,0.0,-999.0,78,-99.99,,,0.01,,2013-10-24 01:42:00,
2013-10-23 20:52:00,45.0,39.0,30.13,NE,44,0.0,-999.0,80,-99.99,,,0.01,,2013-10-24 01:52:00,
2013-10-23 21:12:00,45.0,40.0,30.13,NE,44,0.0,-999.0,82,-99.99,,,0.01,,2013-10-24 02:12:00,
2013-10-23 21:22:00,45.0,40.0,30.13,NE,44,0.0,-999.0,82,-99.99,,,0.01,,2013-10-24 02:22:00,
2013-10-23 22:12:00,43.0,39.0,30.15,NNW,335,0.0,-999.0,85,-99.99,,,0.01,,2013-10-24 03:12:00,
2013-10-23 22:22:00,43.0,39.0,30.15,NNW,335,0.0,-999.0,86,-99.99,,,0.01,,2013-10-24 03:22:00,
2013-10-23 22:55:00,42.0,39.0,30.14,NNW,335,0.0,-999.0,89,-99.99,,,0.01,,2013-10-24 03:55:00,
2013-10-23 23:04:00,42.0,39.0,30.14,NNW,335,0.0,-999.0,89,-99.99,,,0.01,,2013-10-24 04:04:00,
2013-10-23 23:14:00,42.0,39.0,30.14,NNW,335,0.0,-999.0,89,-99.99,,,0.01,,2013-10-24 04:14:00,
2013-10-23 23:24:00,41.0,39.0,30.15,NNW,335,0.0,-999.0,91,-99.99,,,0.01,,2013-10-24 04:24:00,
2013-10-23 23:44:00,41.0,39.0,30.14,NNW,335,0.0,-999.0,92,-99.99,,,0.01,,2013-10-24 04:44:00,
2013-10-23 23:54:00,40.0,38.0,30.15,NNW,335,0.0,-999.0,93,-99.99,,,0.01,,2013-10-24 04:54:00,